Tracking 30995 objects as of 5-Jul-2025
HD Live streaming from Space Station
objects crossing your sky now

EXPRESS AMU-3

Track EXPRESS AMU-3 now!


NORAD ID: 50002
Int'l Code: 2021-123B
Perigee: 35,789.7 km
Apogee: 35,798.5 km
Inclination: 0.0 °
Period: 1,436.1 minutes
Semi major axis: 42165 km
RCS: Unknown
Launch date: December 13, 2021
Source: Commonwealth of Independent States (former USSR) (CIS)
Launch site: TYURATAM MISSILE AND SPACE COMPLEX (TTMTR)
Your satellite tracking list
COSMOS 2161
Track 1 satellite(s)




NASA's NSSDC Master Catalog

Two Line Element Set (TLE):
1 50002U 21123B   25185.92758218 -.00000306  00000-0  00000+0 0  9998
2 50002   0.0199 344.1165 0001036 293.6103  82.2615  1.00270484 13022
Source of the keplerian elements: AFSPC